Regional Weather Roundup
Issued by NWS

Home | Current Version | Previous Version | Graphics & Text | Print | Product List | Glossary On
Versions: 1 2 3 4 5 6 7 8 9 10 11 12 13 14 15 16 17 18 19 20 21 22 23 24 25 26 27 28 29 30 31 32 33 34 35 36 37 38 39 40 41 42 43 44 45 46 47 48 49 50
000
ASUS45 KABQ 201001
RWRNM
NEW MEXICO REGIONAL WEATHER ROUNDUP
NATIONAL WEATHER SERVICE ALBUQUERQUE NM
300 AM MST SAT JAN 20 2018

NOTE: "FAIR" MEANS FEW OR NO CLOUDS BELOW 12,000 FEET AGL WITH NO
       SIGNIFICANT WEATHER OR OBSTRUCTIONS TO VISION.

      THIS PRODUCT IS RELEASED AS TWO VERSIONS.  ONE VERSION NEAR
      THE TOP OF THE HOUR CONTAINING PRELIMINARY DATA FROM ALBUQUERQUE
      AND OTHER STATIONS.  A FINAL VERSION WITH ADDITIONAL DATA IS
      ISSUED ABOUT 10 MINUTES AFTER THE HOUR.

NMZ501-503-504-510>518-201100-
NORTHWEST PLATEAU/NORTHCENTRAL MOUNTAINS

CITY           SKY/WX    TMP DP  RH WIND       PRES   REMARKS
FARMINGTON     FAIR      30  15  53 CALM      29.94R
LOS ALAMOS     FAIR      37  11  34 CALM      30.01S
SANTA FE       FAIR      33  13  43 CALM      29.99S
TAOS           FAIR      21  10  62 CALM      30.03F
ANGEL FIRE     FAIR      11   7  83 CALM      30.03S

$$
NMZ402-403-502-505>509-201100-
WESTCENTRAL MOUNTAINS/SOUTHWEST MOUNTAINS

CITY           SKY/WX    TMP DP  RH WIND       PRES   REMARKS
GALLUP         FAIR      26  11  52 CALM      29.97F
GRANTS         FAIR      21   5  49 CALM      30.02S
SILVER CITY    FAIR      32  13  45 N9        30.03S WCI  24

$$
NMZ407-409-411-412-201100-
SOUTHERN DESERTS

CITY           SKY/WX    TMP DP  RH WIND       PRES   REMARKS
DEMING         FAIR      32  11  41 W5        30.01F WCI  27
LAS CRUCES     FAIR      32  12  43 CALM      30.02S
HOLLOMAN AFB   FAIR      28   9  43 CALM      30.02F
ALAMOGORDO     FAIR      32   9  37 N6        30.01S WCI  26
T OR C         FAIR      39  12  33 N6        29.99S WCI  35

$$
NMZ519>523-201100-
CENTRAL VALLEYS/CENTRAL HIGHLANDS

CITY           SKY/WX    TMP DP  RH WIND       PRES   REMARKS
ALBUQUERQUE    FAIR      35  12  38 CALM      30.00S
MORIARTY ARPT  FAIR      16   2  55 N5        30.02S WCI   9
CLINES CORNERS NOT AVBL
BELEN          FAIR      24   8  50 NW7       29.99F WCI  16
SOCORRO        FAIR      33  11  40 CALM      30.00S

$$
NMZ524>526-539-540-201100-
SOUTHCENTRAL MOUNTAINS

CITY           SKY/WX    TMP DP  RH WIND       PRES   REMARKS
RUIDOSO        NOT AVBL

$$
NMZ527>531-201100-
NORTHEAST HIGHLANDS/NORTHEAST PLAINS

CITY           SKY/WX    TMP DP  RH WIND       PRES   REMARKS
LAS VEGAS      FAIR      33  13  43 S12       29.95F WCI  24
RATON          FAIR      27  15  61 NE9       29.91S WCI  18
CLAYTON        FAIR      49  17  28 W18       29.80F

$$
NMZ532>537-201100-
EASTCENTRAL PLAINS

CITY           SKY/WX    TMP DP  RH WIND       PRES   REMARKS
TUCUMCARI      FAIR      49  14  24 W15       29.82S
CANNON AFB     FAIR      44  13  28 W14       29.87S
CLOVIS AIRPORT FAIR      42  13  30 W16       29.86S

$$
NMZ028-029-538-201100-
SOUTHEAST PLAINS

CITY           SKY/WX    TMP DP  RH WIND       PRES   REMARKS
ROSWELL        FAIR      33  13  43 CALM      29.89S
ARTESIA        FAIR      46  14  27 N6        29.90S
CARLSBAD       FAIR      40  16  37 E5        29.88S
HOBBS          FAIR      36  10  35 SW5       29.89F WCI  32


$$




USA.gov is the U.S. government's official web portal to all federal, state and local government web resources and services.